| time (UTC) | temp F | wind direction | speed MPH | gust MPH | rain 1hr in | rain 24hr in | rain mn in | humidity % | barometer mb |
| 20260506195218 | 59 | 6 | 2.0 | 3.0 | 0.00 | 0.12 | 0.12 | 95 | 1005.2 |
| 20260506194716 | 59 | 348 | 2.0 | 3.0 | 0.00 | 0.12 | 0.12 | 95 | 1005.2 |
| 20260506194212 | 59 | 78 | 0.0 | 2.0 | 0.00 | 0.12 | 0.12 | 95 | 1005.2 |
| 20260506193710 | 59 | 355 | 2.0 | 3.0 | 0.02 | 0.12 | 0.12 | 95 | 1005.1 |
| 20260506193207 | 59 | 18 | 1.0 | 1.0 | 0.02 | 0.12 | 0.12 | 95 | 1005.3 |
| 20260506192704 | 59 | 7 | 0.0 | 2.0 | 0.00 | 0.11 | 0.11 | 95 | 1005.4 |
| 20260506192200 | 59 | 6 | 2.0 | 2.0 | 0.00 | 0.11 | 0.11 | 94 | 1005.4 |
| 20260506191657 | 59 | 34 | 0.0 | 2.0 | 0.00 | 0.11 | 0.11 | 95 | 1005.4 |
| 20260506191153 | 59 | 358 | 1.0 | 2.0 | 0.00 | 0.11 | 0.11 | 94 | 1005.4 |
| 20260506190650 | 59 | 151 | 1.0 | 2.0 | 0.02 | 0.11 | 0.11 | 95 | 1005.4 |
| 20260506190147 | 59 | 27 | 0.0 | 3.0 | 0.02 | 0.11 | 0.11 | 94 | 1005.5 |
| 20260506185644 | 59 | 6 | 3.0 | 3.0 | 0.00 | 0.11 | 0.11 | 94 | 1005.4 |
| 20260506185140 | 59 | 335 | 1.0 | 3.0 | 0.00 | 0.11 | 0.11 | 94 | 1005.5 |
| 20260506184638 | 59 | 107 | 0.0 | 4.0 | 0.00 | 0.11 | 0.11 | 94 | 1005.6 |
| 20260506184135 | 59 | 139 | 2.0 | 3.0 | 0.02 | 0.11 | 0.11 | 94 | 1005.7 |
| 20260506183631 | 59 | 87 | 2.0 | 3.0 | 0.02 | 0.11 | 0.11 | 94 | 1005.9 |
| 20260506183127 | 59 | 13 | 0.0 | 2.0 | 0.02 | 0.11 | 0.11 | 94 | 1005.8 |
| 20260506182625 | 59 | 9 | 3.0 | 4.0 | 0.05 | 0.11 | 0.11 | 94 | 1005.7 |
| 20260506182122 | 59 | 13 | 2.0 | 2.0 | 0.05 | 0.10 | 0.10 | 93 | 1005.8 |
| 20260506181620 | 59 | 88 | 0.0 | 3.0 | 0.05 | 0.09 | 0.09 | 93 | 1005.9 |
| 20260506181117 | 59 | 160 | 0.0 | 3.0 | 0.05 | 0.09 | 0.09 | 92 | 1005.9 |
| 20260506180613 | 60 | 144 | 0.0 | 3.0 | 0.05 | 0.09 | 0.09 | 92 | 1005.8 |
| 20260506180110 | 60 | 143 | 1.0 | 4.0 | 0.05 | 0.08 | 0.08 | 93 | 1005.9 |
| 20260506175606 | 60 | 175 | 0.0 | 3.0 | 0.05 | 0.08 | 0.08 | 92 | 1006.0 |
| 20260506175102 | 60 | 337 | 0.0 | 2.0 | 0.07 | 0.07 | 0.07 | 92 | 1005.8 |
| 20260506174601 | 60 | 29 | 0.0 | 3.0 | 0.09 | 0.07 | 0.07 | 91 | 1006.0 |
| 20260506174057 | 61 | 339 | 1.0 | 2.0 | 0.07 | 0.06 | 0.06 | 91 | 1005.9 |
| 20260506173555 | 61 | 128 | 0.0 | 2.0 | 0.09 | 0.06 | 0.06 | 89 | 1005.9 |
| 20260506173051 | 61 | 4 | 2.0 | 3.0 | 0.12 | 0.05 | 0.05 | 89 | 1006.2 |
| 20260506172549 | 62 | 126 | 0.0 | 2.0 | 0.09 | 0.04 | 0.04 | 88 | 1006.3 |
| 20260506172045 | 62 | 24 | 1.0 | 2.0 | 0.07 | 0.03 | 0.03 | 87 | 1006.4 |
| 20260506171543 | 63 | 23 | 2.0 | 3.0 | 0.07 | 0.02 | 0.02 | 86 | 1006.5 |
| 20260506171041 | 63 | 28 | 2.0 | 3.0 | 0.07 | 0.02 | 0.02 | 83 | 1006.8 |
| 20260506170538 | 64 | 2 | 2.0 | 3.0 | 0.05 | 0.01 | 0.01 | 80 | 1006.9 |
| 20260506170035 | 64 | 345 | 2.0 | 2.0 | 0.02 | 0.01 | 0.01 | 77 | 1006.9 |
| 20260506165533 | 65 | 189 | 0.0 | 2.0 | 0.00 | 0.00 | 0.00 | 75 | 1006.9 |
| 20260506165029 | 65 | 37 | 1.0 | 2.0 | 0.00 | 0.00 | 0.00 | 74 | 1007.0 |
| 20260506164526 | 66 | 27 | 2.0 | 5.0 | 0.00 | 0.00 | 0.00 | 73 | 1006.9 |
| 20260506164024 | 66 | 1 | 0.0 | 2.0 | 0.00 | 0.00 | 0.00 | 71 | 1006.8 |
| 20260506163519 | 66 | 39 | 0.0 | 2.0 | 0.02 | 0.00 | 0.00 | 70 | 1006.6 |
| 20260506163015 | 67 | 118 | 1.0 | 4.0 | 0.02 | 0.00 | 0.00 | 70 | 1006.9 |
| 20260506162512 | 67 | 26 | 1.0 | 7.0 | 0.00 | 0.00 | 0.00 | 70 | 1006.5 |
| 20260506162009 | 67 | 12 | 2.0 | 2.0 | 0.00 | 0.00 | 0.00 | 70 | 1006.7 |
| 20260506161507 | 68 | 69 | 0.0 | 2.0 | 0.00 | 0.00 | 0.00 | 67 | 1006.5 |
| 20260506161003 | 68 | 329 | 2.0 | 3.0 | 0.00 | 0.00 | 0.00 | 66 | 1006.4 |
| 20260506160501 | 68 | 353 | 2.0 | 4.0 | 0.00 | 0.00 | 0.00 | 67 | 1006.7 |
| 20260506155958 | 68 | 349 | 0.0 | 4.0 | 0.00 | 0.00 | 0.00 | 66 | 1006.7 |
| 20260506155457 | 68 | 25 | 2.0 | 6.0 | 0.00 | 0.00 | 0.00 | 66 | 1006.9 |
| 20260506153628 | 68 | 27 | 0.0 | 3.0 | 0.00 | 0.00 | 0.00 | 67 | 1007.3 |
| 20260506153125 | 68 | 26 | 3.0 | 4.0 | 0.00 | 0.00 | 0.00 | 66 | 1007.0 |
| 20260506152622 | 68 | 353 | 1.0 | 3.0 | 0.00 | 0.00 | 0.00 | 66 | 1007.1 |
| 20260506152120 | 68 | 11 | 2.0 | 2.0 | 0.00 | 0.00 | 0.00 | 66 | 1007.1 |
| 20260506151618 | 68 | 337 | 2.0 | 3.0 | 0.00 | 0.00 | 0.00 | 66 | 1007.3 |
| 20260506151115 | 68 | 78 | 2.0 | 3.0 | 0.00 | 0.00 | 0.00 | 67 | 1007.1 |
| 20260506150612 | 68 | 345 | 2.0 | 4.0 | 0.00 | 0.00 | 0.00 | 68 | 1007.1 |
| 20260506150109 | 68 | 343 | 1.0 | 3.0 | 0.00 | 0.00 | 0.00 | 67 | 1007.2 |
| 20260506145606 | 68 | 187 | 1.0 | 6.0 | 0.00 | 0.00 | 0.00 | 68 | 1007.2 |
| 20260506145103 | 68 | 112 | 2.0 | 3.0 | 0.00 | 0.00 | 0.00 | 68 | 1007.1 |
| 20260506144559 | 67 | 23 | 0.0 | 3.0 | 0.00 | 0.00 | 0.00 | 69 | 1007.1 |
| 20260506144056 | 67 | 9 | 1.0 | 4.0 | 0.00 | 0.00 | 0.00 | 70 | 1007.3 |
| 20260506143554 | 67 | 118 | 2.0 | 4.0 | 0.00 | 0.00 | 0.00 | 71 | 1007.3 |
| 20260506143052 | 66 | 348 | 2.0 | 2.0 | 0.00 | 0.00 | 0.00 | 72 | 1007.5 |
| 20260506142550 | 66 | 286 | 1.0 | 4.0 | 0.00 | 0.00 | 0.00 | 71 | 1007.5 |
| 20260506142048 | 66 | 104 | 0.0 | 5.0 | 0.00 | 0.00 | 0.00 | 72 | 1007.5 |
| 20260506141545 | 66 | 29 | 2.0 | 4.0 | 0.00 | 0.00 | 0.00 | 72 | 1007.5 |
| 20260506141043 | 66 | 14 | 3.0 | 3.0 | 0.00 | 0.00 | 0.00 | 74 | 1007.3 |
| 20260506140541 | 65 | 5 | 2.0 | 3.0 | 0.00 | 0.00 | 0.00 | 75 | 1007.3 |
| 20260506140038 | 64 | 345 | 0.0 | 3.0 | 0.00 | 0.00 | 0.00 | 76 | 1007.3 |
| 20260506135534 | 64 | 337 | 0.0 | 2.0 | 0.00 | 0.00 | 0.00 | 77 | 1007.4 |
| 20260506135030 | 64 | 346 | 0.0 | 2.0 | 0.00 | 0.00 | 0.00 | 78 | 1007.5 |
| 20260506134527 | 63 | 321 | 0.0 | 2.0 | 0.00 | 0.00 | 0.00 | 79 | 1007.6 |
| 20260506134023 | 63 | 350 | 2.0 | 3.0 | 0.00 | 0.00 | 0.00 | 79 | 1007.4 |
| 20260506133521 | 63 | 340 | 3.0 | 3.0 | 0.00 | 0.00 | 0.00 | 80 | 1007.3 |
| 20260506133017 | 63 | 27 | 3.0 | 3.0 | 0.00 | 0.00 | 0.00 | 79 | 1007.5 |
| 20260506132514 | 62 | 89 | 2.0 | 2.0 | 0.00 | 0.00 | 0.00 | 80 | 1007.3 |
| 20260506132012 | 62 | 18 | 3.0 | 4.0 | 0.00 | 0.00 | 0.00 | 81 | 1007.4 |
| 20260506131509 | 62 | 18 | 2.0 | 2.0 | 0.00 | 0.00 | 0.00 | 81 | 1007.5 |
| 20260506131005 | 61 | 9 | 1.0 | 2.0 | 0.00 | 0.00 | 0.00 | 81 | 1007.4 |
| 20260506130502 | 61 | 158 | 0.0 | 2.0 | 0.00 | 0.00 | 0.00 | 82 | 1007.6 |
| 20260506125959 | 61 | 6 | 1.0 | 2.0 | 0.00 | 0.00 | 0.00 | 82 | 1007.8 |
| 20260506125458 | 61 | 345 | 1.0 | 2.0 | 0.00 | 0.00 | 0.00 | 83 | 1007.7 |
| 20260506124955 | 60 | 341 | 0.0 | 2.0 | 0.00 | 0.00 | 0.00 | 83 | 1007.8 |
| 20260506124453 | 60 | 337 | 1.0 | 3.0 | 0.00 | 0.00 | 0.00 | 84 | 1007.8 |
| 20260506123951 | 60 | 91 | 0.0 | 1.0 | 0.00 | 0.00 | 0.00 | 84 | 1008.0 |
| 20260506123449 | 60 | 329 | 1.0 | 1.0 | 0.00 | 0.00 | 0.00 | 84 | 1008.2 |
| 20260506122946 | 60 | 347 | 1.0 | 2.0 | 0.00 | 0.00 | 0.00 | 84 | 1008.1 |
| 20260506122443 | 60 | 21 | 0.0 | 2.0 | 0.00 | 0.00 | 0.00 | 85 | 1008.2 |
| 20260506121941 | 59 | 14 | 0.0 | 2.0 | 0.00 | 0.00 | 0.00 | 85 | 1008.3 |
| 20260506121438 | 59 | 354 | 2.0 | 2.0 | 0.00 | 0.00 | 0.00 | 85 | 1008.1 |
| 20260506120934 | 59 | 341 | 2.0 | 2.0 | 0.00 | 0.00 | 0.00 | 86 | 1008.1 |
| 20260506120432 | 59 | 4 | 0.0 | 2.0 | 0.00 | 0.00 | 0.00 | 86 | 1008.2 |
| 20260506115929 | 59 | 354 | 2.0 | 2.0 | 0.00 | 0.00 | 0.00 | 86 | 1008.1 |
| 20260506115427 | 59 | 4 | 2.0 | 3.0 | 0.00 | 0.00 | 0.00 | 86 | 1008.0 |
| 20260506114925 | 58 | 338 | 1.0 | 2.0 | 0.00 | 0.00 | 0.00 | 87 | 1008.0 |
| 20260506114422 | 58 | 41 | 1.0 | 4.0 | 0.00 | 0.00 | 0.00 | 87 | 1008.2 |
| 20260506113921 | 58 | 358 | 2.0 | 2.0 | 0.00 | 0.00 | 0.00 | 88 | 1008.1 |
| 20260506113418 | 58 | 5 | 2.0 | 2.0 | 0.00 | 0.00 | 0.00 | 88 | 1008.2 |
| 20260506112914 | 58 | 359 | 2.0 | 3.0 | 0.00 | 0.00 | 0.00 | 89 | 1008.2 |
| 20260506112412 | 57 | 350 | 2.0 | 3.0 | 0.00 | 0.00 | 0.00 | 90 | 1008.0 |
| 20260506111909 | 57 | 346 | 2.0 | 3.0 | 0.00 | 0.00 | 0.00 | 91 | 1008.0 |
| 20260506111407 | 56 | 334 | 3.0 | 3.0 | 0.00 | 0.00 | 0.00 | 93 | 1008.1 |
| 20260506110904 | 55 | 346 | 2.0 | 3.0 | 0.00 | 0.00 | 0.00 | 95 | 1008.1 |
| 20260506110402 | 55 | 321 | 1.0 | 2.0 | 0.00 | 0.00 | 0.00 | 96 | 1008.1 |
| 20260506105858 | 54 | 355 | 3.0 | 3.0 | 0.00 | 0.00 | 0.00 | 96 | 1008.2 |
| 20260506105355 | 54 | 348 | 2.0 | 3.0 | 0.00 | 0.00 | 0.00 | 96 | 1008.3 |
| 20260506104852 | 54 | 348 | 2.0 | 3.0 | 0.00 | 0.00 | 0.00 | 96 | 1008.3 |
| 20260506104350 | 54 | 334 | 2.0 | 3.0 | 0.00 | 0.00 | 0.00 | 96 | 1008.2 |
| 20260506103847 | 53 | 345 | 3.0 | 3.0 | 0.00 | 0.00 | 0.00 | 96 | 1008.1 |
| 20260506103345 | 53 | 350 | 3.0 | 3.0 | 0.00 | 0.00 | 0.00 | 95 | 1008.3 |
| 20260506102842 | 53 | 334 | 2.0 | 3.0 | 0.00 | 0.00 | 0.00 | 96 | 1008.1 |
| 20260506102340 | 53 | 339 | 2.0 | 3.0 | 0.00 | 0.00 | 0.00 | 96 | 1008.0 |
| 20260506101837 | 53 | 334 | 2.0 | 3.0 | 0.00 | 0.00 | 0.00 | 96 | 1007.9 |
| 20260506101333 | 53 | 345 | 2.0 | 3.0 | 0.00 | 0.00 | 0.00 | 95 | 1008.1 |
| 20260506100831 | 53 | 337 | 2.0 | 2.0 | 0.00 | 0.00 | 0.00 | 95 | 1008.0 |
| 20260506100330 | 53 | 339 | 2.0 | 3.0 | 0.00 | 0.00 | 0.00 | 95 | 1008.0 |
| 20260506095827 | 53 | 335 | 2.0 | 3.0 | 0.00 | 0.00 | 0.00 | 95 | 1008.0 |
| 20260506095324 | 53 | 342 | 3.0 | 3.0 | 0.00 | 0.00 | 0.00 | 95 | 1008.1 |
| 20260506094821 | 53 | 331 | 2.0 | 3.0 | 0.00 | 0.00 | 0.00 | 95 | 1007.9 |
| 20260506094319 | 53 | 334 | 2.0 | 3.0 | 0.00 | 0.00 | 0.00 | 95 | 1008.1 |
| 20260506093817 | 53 | 347 | 3.0 | 3.0 | 0.00 | 0.00 | 0.00 | 95 | 1007.8 |
| 20260506093314 | 53 | 341 | 3.0 | 3.0 | 0.00 | 0.00 | 0.00 | 94 | 1007.9 |
| 20260506092812 | 53 | 344 | 2.0 | 3.0 | 0.00 | 0.00 | 0.00 | 94 | 1007.9 |
| 20260506092309 | 53 | 325 | 2.0 | 3.0 | 0.00 | 0.00 | 0.00 | 94 | 1007.8 |
| 20260506091806 | 53 | 334 | 2.0 | 3.0 | 0.00 | 0.00 | 0.00 | 94 | 1007.8 |
| 20260506091304 | 53 | 335 | 2.0 | 3.0 | 0.00 | 0.00 | 0.00 | 94 | 1008.0 |
| 20260506090802 | 53 | 333 | 3.0 | 3.0 | 0.00 | 0.00 | 0.00 | 94 | 1008.0 |
| 20260506090258 | 53 | 343 | 2.0 | 3.0 | 0.00 | 0.00 | 0.00 | 94 | 1008.1 |
| 20260506085755 | 53 | 336 | 3.0 | 3.0 | 0.00 | 0.00 | 0.00 | 93 | 1007.8 |
| 20260506085251 | 54 | 341 | 2.0 | 3.0 | 0.00 | 0.00 | 0.00 | 93 | 1007.9 |
| 20260506084748 | 54 | 336 | 2.0 | 2.0 | 0.00 | 0.00 | 0.00 | 93 | 1008.0 |
| 20260506084244 | 54 | 334 | 2.0 | 3.0 | 0.00 | 0.00 | 0.00 | 93 | 1008.0 |
| 20260506083741 | 54 | 334 | 3.0 | 3.0 | 0.00 | 0.00 | 0.00 | 93 | 1008.1 |
| 20260506083239 | 54 | 336 | 2.0 | 3.0 | 0.00 | 0.00 | 0.00 | 92 | 1008.1 |
| 20260506082736 | 54 | 339 | 2.0 | 3.0 | 0.00 | 0.00 | 0.00 | 92 | 1008.2 |
| 20260506082231 | 54 | 345 | 2.0 | 3.0 | 0.00 | 0.00 | 0.00 | 92 | 1008.0 |
| 20260506081730 | 54 | 335 | 2.0 | 3.0 | 0.00 | 0.00 | 0.00 | 92 | 1008.1 |
| 20260506081227 | 54 | 339 | 2.0 | 3.0 | 0.00 | 0.00 | 0.00 | 91 | 1008.0 |
| 20260506080725 | 54 | 338 | 2.0 | 3.0 | 0.00 | 0.00 | 0.00 | 91 | 1008.1 |
| 20260506080221 | 54 | 338 | 2.0 | 3.0 | 0.00 | 0.00 | 0.00 | 91 | 1008.0 |
| 20260506073205 | 55 | 337 | 2.0 | 2.0 | 0.00 | 0.00 | 0.00 | 90 | 1008.0 |
| 20260506072702 | 55 | 352 | 2.0 | 2.0 | 0.00 | 0.00 | 0.00 | 89 | 1008.0 |
| 20260506072159 | 55 | 343 | 2.0 | 3.0 | 0.00 | 0.00 | 0.00 | 89 | 1008.2 |
| 20260506071657 | 55 | 349 | 2.0 | 3.0 | 0.00 | 0.00 | 0.00 | 89 | 1008.1 |
| 20260506071155 | 55 | 359 | 3.0 | 4.0 | 0.00 | 0.00 | 0.00 | 88 | 1008.1 |
| 20260506070651 | 55 | 330 | 2.0 | 3.0 | 0.00 | 0.00 | 0.00 | 88 | 1008.1 |
| 20260506070148 | 55 | 346 | 3.0 | 3.0 | 0.00 | 0.00 | 0.00 | 88 | 1008.1 |
| 20260506062125 | 57 | 346 | 3.0 | 3.0 | 0.00 | 0.00 | 0.00 | 83 | 1007.9 |
| 20260506061621 | 57 | 342 | 3.0 | 3.0 | 0.00 | 0.00 | 0.00 | 83 | 1007.9 |
| 20260506061119 | 57 | 338 | 3.0 | 3.0 | 0.00 | 0.00 | 0.00 | 83 | 1007.9 |
| 20260506060617 | 57 | 333 | 2.0 | 3.0 | 0.00 | 0.00 | 0.00 | 83 | 1007.8 |
| 20260506060114 | 57 | 342 | 2.0 | 3.0 | 0.00 | 0.00 | 0.00 | 82 | 1007.9 |
| 20260506051046 | 58 | 345 | 3.0 | 3.0 | 0.00 | 0.00 | 0.00 | 80 | 1008.3 |
| 20260506050544 | 58 | 338 | 3.0 | 4.0 | 0.00 | 0.00 | 0.00 | 80 | 1008.1 |
| 20260506045034 | 58 | 334 | 2.0 | 2.0 | 0.00 | 0.00 | 0.00 | 81 | 1008.1 |
| 20260506044532 | 58 | 346 | 2.0 | 3.0 | 0.00 | 0.00 | 0.00 | 81 | 1008.3 |
| 20260506044029 | 59 | 346 | 2.0 | 3.0 | 0.00 | 0.00 | 0.00 | 80 | 1008.1 |
| 20260506043526 | 59 | 319 | 2.0 | 3.0 | 0.00 | 0.00 | 0.00 | 80 | 1008.2 |
| 20260506043024 | 59 | 356 | 2.0 | 3.0 | 0.00 | 0.00 | 0.00 | 80 | 1008.2 |
| 20260506042523 | 59 | 342 | 2.0 | 3.0 | 0.00 | 0.00 | 0.00 | 80 | 1008.1 |
| 20260506042021 | 59 | 353 | 2.0 | 3.0 | 0.00 | 0.00 | 0.00 | 81 | 1008.3 |
| 20260506041519 | 59 | 336 | 2.0 | 4.0 | 0.00 | 0.00 | 0.00 | 80 | 1008.2 |
| 20260506041015 | 59 | 339 | 3.0 | 3.0 | 0.00 | 0.00 | 0.00 | 78 | 1008.2 |
| 20260506040514 | 59 | 340 | 2.0 | 3.0 | 0.00 | 0.00 | 0.00 | 78 | 1008.2 |
| 20260506040009 | 59 | 343 | 2.0 | 4.0 | 0.00 | 0.00 | 0.00 | 78 | 1008.2 |
| 20260506035506 | 59 | 319 | 2.0 | 3.0 | 0.00 | 0.00 | 0.00 | 77 | 1008.2 |
| 20260506035003 | 59 | 335 | 3.0 | 3.0 | 0.00 | 0.00 | 0.00 | 77 | 1008.4 |
| 20260506034500 | 59 | 339 | 2.0 | 3.0 | 0.00 | 0.00 | 0.00 | 77 | 1008.3 |
| 20260506033957 | 59 | 344 | 2.0 | 3.0 | 0.00 | 0.00 | 0.00 | 77 | 1008.4 |
| 20260506033455 | 59 | 338 | 2.0 | 3.0 | 0.00 | 0.00 | 0.00 | 77 | 1008.3 |
| 20260506032951 | 59 | 338 | 3.0 | 3.0 | 0.00 | 0.00 | 0.00 | 76 | 1008.3 |
| 20260506032449 | 59 | 333 | 2.0 | 3.0 | 0.00 | 0.00 | 0.00 | 75 | 1008.4 |
| 20260506031945 | 59 | 351 | 2.0 | 3.0 | 0.00 | 0.00 | 0.00 | 75 | 1008.2 |
| 20260506031442 | 60 | 334 | 2.0 | 3.0 | 0.00 | 0.00 | 0.00 | 75 | 1008.4 |
| 20260506030940 | 60 | 348 | 2.0 | 2.0 | 0.00 | 0.00 | 0.00 | 74 | 1008.4 |
| 20260506030438 | 60 | 353 | 2.0 | 2.0 | 0.00 | 0.00 | 0.00 | 74 | 1008.2 |
| 20260506025934 | 60 | 336 | 2.0 | 2.0 | 0.00 | 0.00 | 0.00 | 75 | 1008.3 |
| 20260506025431 | 60 | 342 | 2.0 | 3.0 | 0.00 | 0.00 | 0.00 | 74 | 1008.2 |
| 20260506024928 | 60 | 339 | 2.0 | 2.0 | 0.00 | 0.00 | 0.00 | 74 | 1008.2 |
| 20260506024425 | 60 | 338 | 2.0 | 2.0 | 0.00 | 0.00 | 0.00 | 74 | 1008.0 |
| 20260506023920 | 60 | 345 | 2.0 | 2.0 | 0.00 | 0.00 | 0.00 | 74 | 1008.1 |
| 20260506023418 | 60 | 338 | 2.0 | 3.0 | 0.00 | 0.00 | 0.00 | 74 | 1008.1 |
| 20260506022914 | 60 | 342 | 2.0 | 3.0 | 0.00 | 0.00 | 0.00 | 74 | 1008.0 |
| 20260506022412 | 60 | 339 | 2.0 | 3.0 | 0.00 | 0.00 | 0.00 | 74 | 1008.2 |
| 20260506021910 | 60 | 357 | 2.0 | 3.0 | 0.00 | 0.00 | 0.00 | 74 | 1008.3 |
| 20260506021407 | 60 | 338 | 2.0 | 2.0 | 0.00 | 0.00 | 0.00 | 74 | 1008.0 |
| 20260506020903 | 60 | 334 | 2.0 | 3.0 | 0.00 | 0.00 | 0.00 | 74 | 1008.1 |
| 20260506020402 | 60 | 333 | 2.0 | 3.0 | 0.00 | 0.00 | 0.00 | 74 | 1008.1 |
| 20260506015859 | 60 | 343 | 2.0 | 4.0 | 0.00 | 0.00 | 0.00 | 73 | 1008.1 |
| 20260506015356 | 60 | 340 | 2.0 | 3.0 | 0.00 | 0.00 | 0.00 | 74 | 1008.2 |
| 20260506014853 | 60 | 342 | 2.0 | 3.0 | 0.00 | 0.00 | 0.00 | 74 | 1008.1 |
| 20260506014349 | 61 | 329 | 2.0 | 2.0 | 0.00 | 0.00 | 0.00 | 74 | 1008.0 |
| 20260506013846 | 61 | 334 | 2.0 | 3.0 | 0.00 | 0.00 | 0.00 | 72 | 1008.1 |
| 20260506013344 | 61 | 334 | 2.0 | 3.0 | 0.00 | 0.00 | 0.00 | 71 | 1008.0 |
| 20260506012840 | 61 | 330 | 3.0 | 3.0 | 0.00 | 0.00 | 0.00 | 71 | 1007.9 |
| 20260506012337 | 62 | 349 | 2.0 | 2.0 | 0.00 | 0.00 | 0.00 | 71 | 1007.8 |
| 20260506011834 | 62 | 1 | 2.0 | 2.0 | 0.00 | 0.00 | 0.00 | 70 | 1007.7 |
| 20260506011331 | 62 | 351 | 2.0 | 3.0 | 0.00 | 0.00 | 0.00 | 70 | 1007.6 |
| 20260506010828 | 62 | 343 | 2.0 | 3.0 | 0.00 | 0.00 | 0.00 | 69 | 1007.5 |
| 20260506010326 | 63 | 2 | 2.0 | 3.0 | 0.00 | 0.00 | 0.00 | 69 | 1007.6 |
| 20260506005823 | 63 | 342 | 2.0 | 3.0 | 0.00 | 0.00 | 0.00 | 67 | 1007.5 |
| 20260506005320 | 63 | 343 | 2.0 | 3.0 | 0.00 | 0.00 | 0.00 | 67 | 1007.5 |
| 20260506004816 | 64 | 336 | 2.0 | 2.0 | 0.00 | 0.00 | 0.00 | 66 | 1007.4 |
| 20260506004313 | 64 | 342 | 2.0 | 3.0 | 0.00 | 0.00 | 0.00 | 65 | 1007.3 |
| 20260506003809 | 64 | 347 | 3.0 | 3.0 | 0.00 | 0.00 | 0.00 | 64 | 1007.2 |
| 20260506003306 | 65 | 343 | 2.0 | 3.0 | 0.00 | 0.00 | 0.00 | 64 | 1007.3 |
| 20260506002802 | 65 | 329 | 2.0 | 2.0 | 0.00 | 0.00 | 0.00 | 63 | 1007.2 |
| 20260506002259 | 65 | 347 | 2.0 | 3.0 | 0.00 | 0.00 | 0.00 | 63 | 1007.0 |
| 20260506001754 | 66 | 333 | 0.0 | 2.0 | 0.00 | 0.00 | 0.00 | 62 | 1006.8 |
| 20260506001252 | 66 | 345 | 3.0 | 3.0 | 0.00 | 0.00 | 0.00 | 62 | 1006.8 |
| 20260506000749 | 66 | 342 | 3.0 | 3.0 | 0.00 | 0.00 | 0.00 | 61 | 1006.7 |
| 20260506000247 | 67 | 356 | 2.0 | 3.0 | 0.00 | 0.00 | 0.00 | 60 | 1006.7 |
| 20260505235743 | 67 | 352 | 3.0 | 3.0 | 0.00 | 0.00 | 0.00 | 60 | 1006.5 |
| 20260505235241 | 67 | 8 | 2.0 | 3.0 | 0.00 | 0.00 | 0.00 | 59 | 1006.4 |
| 20260505234737 | 68 | 346 | 2.0 | 3.0 | 0.00 | 0.00 | 0.00 | 58 | 1006.5 |
| 20260505234235 | 68 | 349 | 2.0 | 4.0 | 0.00 | 0.00 | 0.00 | 57 | 1006.5 |
| 20260505233731 | 68 | 355 | 0.0 | 3.0 | 0.00 | 0.00 | 0.00 | 56 | 1006.4 |
| 20260505233230 | 69 | 344 | 2.0 | 2.0 | 0.00 | 0.00 | 0.00 | 56 | 1006.3 |
| 20260505232726 | 69 | 352 | 3.0 | 3.0 | 0.00 | 0.00 | 0.00 | 56 | 1006.2 |
| 20260505232224 | 69 | 357 | 2.0 | 2.0 | 0.00 | 0.00 | 0.00 | 55 | 1006.1 |
| 20260505231720 | 69 | 15 | 2.0 | 3.0 | 0.00 | 0.00 | 0.00 | 55 | 1006.1 |
| 20260505231219 | 70 | 50 | 0.0 | 2.0 | 0.00 | 0.00 | 0.00 | 54 | 1006.1 |
| 20260505230717 | 70 | 18 | 0.0 | 3.0 | 0.00 | 0.00 | 0.00 | 54 | 1006.0 |
| 20260505230213 | 70 | 12 | 1.0 | 2.0 | 0.00 | 0.00 | 0.00 | 53 | 1005.8 |
| 20260505225710 | 70 | 2 | 2.0 | 3.0 | 0.00 | 0.00 | 0.00 | 53 | 1006.1 |
| 20260505225207 | 71 | 34 | 2.0 | 4.0 | 0.00 | 0.00 | 0.00 | 53 | 1005.8 |
| 20260505224702 | 71 | 8 | 3.0 | 3.0 | 0.00 | 0.00 | 0.00 | 53 | 1005.6 |
| 20260505224200 | 71 | 119 | 0.0 | 3.0 | 0.00 | 0.00 | 0.00 | 53 | 1005.6 |
| 20260505223658 | 71 | 71 | 0.0 | 5.0 | 0.00 | 0.00 | 0.00 | 53 | 1005.5 |
| 20260505223153 | 71 | 42 | 1.0 | 3.0 | 0.00 | 0.00 | 0.00 | 54 | 1005.7 |
| 20260505222649 | 71 | 334 | 2.0 | 2.0 | 0.00 | 0.00 | 0.00 | 53 | 1005.4 |
| 20260505222146 | 71 | 351 | 2.0 | 4.0 | 0.00 | 0.00 | 0.00 | 53 | 1005.4 |
| 20260505221643 | 71 | 0 | 4.0 | 5.0 | 0.00 | 0.00 | 0.00 | 53 | 1005.4 |
| 20260505221139 | 72 | 127 | 3.0 | 4.0 | 0.00 | 0.00 | 0.00 | 52 | 1005.2 |
| 20260505220637 | 72 | 135 | 3.0 | 5.0 | 0.00 | 0.00 | 0.00 | 51 | 1004.9 |
| 20260505220134 | 72 | 198 | 0.0 | 3.0 | 0.00 | 0.00 | 0.00 | 51 | 1005.4 |
| 20260505215632 | 73 | 347 | 0.0 | 2.0 | 0.00 | 0.00 | 0.00 | 51 | 1005.3 |
| 20260505215130 | 73 | 198 | 1.0 | 2.0 | 0.00 | 0.00 | 0.00 | 50 | 1005.4 |
| 20260505214628 | 73 | 4 | 1.0 | 2.0 | 0.00 | 0.00 | 0.00 | 50 | 1005.4 |
| 20260505214125 | 73 | 85 | 1.0 | 4.0 | 0.00 | 0.00 | 0.00 | 49 | 1005.5 |
| 20260505213622 | 74 | 169 | 1.0 | 4.0 | 0.00 | 0.00 | 0.00 | 48 | 1005.6 |
| 20260505213119 | 74 | 13 | 0.0 | 2.0 | 0.00 | 0.00 | 0.00 | 48 | 1005.4 |
| 20260505212615 | 75 | 123 | 0.0 | 4.0 | 0.00 | 0.00 | 0.00 | 49 | 1005.2 |
| 20260505212113 | 75 | 352 | 3.0 | 4.0 | 0.00 | 0.00 | 0.00 | 48 | 1005.4 |
| 20260505211609 | 75 | 334 | 0.0 | 4.0 | 0.00 | 0.00 | 0.00 | 48 | 1005.3 |
| 20260505211106 | 75 | 58 | 2.0 | 3.0 | 0.00 | 0.00 | 0.00 | 47 | 1005.3 |
| 20260505210603 | 76 | 116 | 3.0 | 3.0 | 0.00 | 0.00 | 0.00 | 46 | 1005.4 |
| 20260505210100 | 76 | 344 | 2.0 | 4.0 | 0.00 | 0.00 | 0.00 | 48 | 1005.4 |
| 20260505205558 | 76 | 16 | 0.0 | 2.0 | 0.00 | 0.00 | 0.00 | 46 | 1005.3 |
| 20260505205055 | 76 | 338 | 1.0 | 3.0 | 0.00 | 0.00 | 0.00 | 46 | 1005.6 |
| 20260505204552 | 76 | 23 | 2.0 | 3.0 | 0.00 | 0.00 | 0.00 | 46 | 1005.3 |
| 20260505204049 | 77 | 155 | 0.0 | 5.0 | 0.00 | 0.00 | 0.00 | 45 | 1005.1 |
| 20260505203546 | 78 | 346 | 5.0 | 5.0 | 0.00 | 0.00 | 0.00 | 44 | 1005.2 |
| 20260505203043 | 78 | 263 | 1.0 | 5.0 | 0.00 | 0.00 | 0.00 | 44 | 1005.2 |
| 20260505202539 | 79 | 84 | 2.0 | 5.0 | 0.00 | 0.00 | 0.00 | 43 | 1005.1 |
| 20260505202035 | 80 | 146 | 2.0 | 5.0 | 0.00 | 0.00 | 0.00 | 43 | 1005.2 |
| 20260505201532 | 80 | 133 | 0.0 | 2.0 | 0.00 | 0.00 | 0.00 | 42 | 1005.1 |
| 20260505201030 | 80 | 343 | 3.0 | 4.0 | 0.00 | 0.00 | 0.00 | 42 | 1005.1 |
| 20260505200527 | 79 | 41 | 1.0 | 5.0 | 0.00 | 0.00 | 0.00 | 42 | 1005.1 |
| 20260505200024 | 80 | 120 | 2.0 | 5.0 | 0.00 | 0.00 | 0.00 | 42 | 1005.2 |
| 20260505195520 | 79 | 166 | 1.0 | 4.0 | 0.00 | 0.00 | 0.00 | 41 | 1005.3 |